CAPE
0 0 6 37 86 74 23 32 33 32 31 13 7 0 8 11 24 0 0 0 0 121 193 191 219 236 263 296 271 238 288 271 312 319 359 430 429 470 436 448 427 469 471
0 0 1 35 110 179 108 42 64 112 59 13 0 0 5 12 16 0 0 0 0 0 60 13 3 143 408 273 135 70 14 5 19 65 109 176 224 287 342 262 248 340 329
4 0 47 104 236 288 245 205 183 177 66 1 0 0 0 11 5 0 0 0 0 0 0 102 0 0 240 160 90 0 0 0 0 0 0 0 1 13 69 96 70 101 235
6 40 96 174 293 339 359 370 237 60 49 21 0 0 0 0 12 4 0 0 0 0 0 0 125 62 62 0 12 55 0 0 0 0 0 0 0 0 0 0 0 0 3
2 34 87 177 336 408 400 335 286 79 48 40 41 27 27 12 4 0 0 0 0 0 0 14 0 63 88 27 1 1 2 0 0 0 0 0 0 0 0 0 0 0 0
14 69 133 176 323 501 506 365 220 159 60 93 36 35 90 76 65 19 5 0 0 0 0 0 0 0 14 112 120 65 10 1 0 0 0 0 0 0 0 0 0 0 0
0 11 65 108 319 470 682 680 168 28 28 103 79 53 98 143 135 118 104 75 29 0 0 0 0 0 0 0 109 173 160 105 59 33 0 0 0 0 0 0 0 0 0
0 11 58 110 256 459 693 373 41 36 17 32 79 58 84 114 96 150 141 66 35 14 1 0 0 0 0 0 0 13 100 247 290 205 108 15 0 0 0 0 0 0 0
0 17 80 179 418 466 566 288 48 23 28 42 33 17 21 7 13 74 166 145 53 18 20 15 2 0 0 0 0 0 0 6 100 305 385 196 62 8 0 0 0 0 0
33 60 158 371 484 434 421 209 94 21 0 2 18 15 7 9 14 3 61 143 224 136 23 2 11 8 3 4 0 1 3 2 10 71 154 263 254 171 85 34 7 0 0
143 157 160 254 384 426 408 214 139 14 0 15 32 3 3 2 10 21 1 37 82 146 105 127 131 135 35 6 0 0 0 0 27 30 37 90 200 420 350 206 130 7 2
46 43 121 153 154 120 247 213 135 42 31 45 38 11 24 2 4 11 9 5 30 8 7 0 0 0 0 0 0 0 0 0 1 10 71 83 97 238 416 430 364 202 84
95 57 109 75 74 64 111 131 109 86 144 83 66 39 6 3 6 9 4 2 10 2 0 0 0 0 0 0 0 1 0 0 21 83 43 82 134 124 198 284 209 224 284
141 129 107 175 118 150 66 119 130 168 127 134 49 3 0 0 1 1 1 0 0 1 0 1 0 0 0 0 0 0 0 0 0 0 0 0 0 7 70 117 96 153 139
0 0 11 111 43 24 19 15 56 107 22 2 0 0 0 0 0 0 0 0 0 0 0 0 0 0 0 0 0 0 0 0 0 0 0 0 0 0 0 11 19 97 101
23 17 37 22 16 16 14 3 0 0 0 0 0 0 0 0 0 0 0 0 0 0 0 0 4 0 0 0 0 0 0 0 0 0 0 0 0 0 0 0 11 20 29
13 2 1 1 0 1 0 0 0 0 0 0 0 0 0 0 0 0 0 0 0 0 0 2 0 0 0 0 0 0 0 0 0 0 0 0 0 0 0 0 0 1 39
0 0 0 0 0 0 0 0 0 0 0 0 0 0 0 0 0 0 0 0 0 1 0 5 14 0 0 0 0 0 0 0 0 0 0 0 0 0 0 0 0 0 1
0 0 0 0 0 0 0 0 0 0 0 0 0 0 2 7 4 3 1 6 6 14 30 29 25 1 0 0 0 0 0 0 0 0 0 0 0 0 0 0 0 0 0
0 0 0 0 0 0 0 0 0 0 0 0 0 0 0 0 0 7 1 3 3 3 1 4 12 12 13 5 0 0 4 1 0 0 0 0 0 0 0 0 0 0 0
0 0 0 0 0 0 0 0 0 0 0 0 0 0 0 0 0 0 4 8 10 13 22 24 26 7 15 8 4 4 6 6 0 0 4 0 3 5 0 0 0 0 0
0 0 0 0 0 0 0 0 0 0 0 0 0 0 0 0 0 0 0 0 0 0 0 0 0 3 3 0 10 13 9 13 7 4 14 1 29 6 27 49 0 0 0
0 0 0 0 0 0 0 0 0 0 0 0 0 0 0 0 0 0 0 0 0 0 0 0 1 3 2 9 14 12 22 32 31 16 29 9 34 24 36 39 0 0 0
0 0 0 0 0 0 0 0 0 0 0 0 0 0 0 0 0 0 0 0 0 0 0 0 0 0 0 0 1 3 3 8 2 12 26 15 27 18 35 51 0 0 0
0 0 0 0 0 0 0 0 0 0 0 0 0 0 0 0 0 0 0 0 0 0 0 0 0 0 0 0 0 0 18 12 19 16 26 26 13 16 22 10 39 0 0
0 0 0 0 0 0 0 0 0 0 0 0 0 0 0 0 0 0 0 0 0 0 0 0 0 1 4 22 1 3 15 16 20 16 20 25 19 14 11 26 54 60 42
CIN
0 0 -29 -36 -27 -27 -18 -20 -24 -31 -26 -29 -17 0 -24 -17 -20 0 0 0 0 -33 -17 -1 -5 -3 -3 0 -2 -11 -12 -9 -5 -23 -21 -15 -13 -8 -13 -10 -22 -20 -11
0 0 -10 -51 -34 -34 -36 -23 -18 -12 -15 -15 0 0 -12 -23 -30 0 0 0 0 0 -16 -2 0 -2 0 -1 -5 -25 -24 -13 -24 -64 -44 -36 -21 -19 -13 -21 -22 -25 -22
-247 0 -129 -58 -25 -31 -37 -37 -28 -22 -24 -2 0 0 0 -35 -40 0 0 0 0 0 0 -10 0 0 0 -3 -14 0 0 0 0 0 0 0 -3 -77 -63 -55 -79 -65 -30
-299 -190 -113 -58 -31 -35 -25 -24 -23 -20 -18 -51 0 0 0 0 -31 -39 0 0 0 0 0 0 -17 -14 -7 0 -1 -2 0 0 0 0 0 0 0 0 0 -14 -63 0 -142
-109 -197 -93 -71 -46 -25 -22 -24 -22 -30 -21 -27 -39 -54 -40 -13 -15 0 0 0 0 0 0 -58 0 -26 -22 -9 0 0 0 0 0 0 0 0 0 0 0 0 0 0 0
-313 -174 -127 -92 -54 -30 -22 -26 -39 -33 -40 -18 -10 -38 -44 -37 -37 -57 -22 0 0 0 0 0 0 0 -9 -14 -3 -9 -2 0 0 0 0 0 0 0 0 0 0 0 0
0 -233 -140 -137 -75 -40 -30 -19 -59 -89 -76 -39 -41 -17 -31 -39 -42 -37 -52 -59 -76 0 0 0 0 0 0 0 -20 -5 -5 -10 -13 -32 0 0 0 0 0 0 0 0 0
0 -256 -183 -134 -82 -46 -46 -60 -99 -69 -62 -71 -28 -19 -3 -11 -41 -48 -69 -120 -136 -126 -13 0 0 0 0 0 0 -42 -24 -23 -17 -17 -26 -66 0 0 0 0 0 0 0
0 -318 -197 -131 -101 -83 -65 -88 -184 -64 -42 -52 -28 -10 -20 -17 -69 -65 -58 -76 -129 -157 -153 -146 -71 0 0 0 0 0 0 -38 -35 -3 -1 -18 -50 -68 -8 0 0 0 0
-419 -307 -200 -109 -79 -101 -91 -97 -125 -105 -8 -53 -38 -37 -29 -20 -18 -12 -43 -46 -38 -78 -144 -49 -153 -138 -139 -115 -4 -88 -88 -83 -79 -30 -8 -2 -11 -23 -55 -95 -83 0 0
-359 -265 -196 -140 -68 -38 -39 -91 -79 -87 0 -41 -14 -23 -42 -2 -5 -1 -8 -36 -63 -21 -49 -38 -28 -31 -49 -46 0 0 0 0 -62 -41 -36 -29 -27 -1 -2 -53 -15 -21 0
-414 -384 -301 -236 -175 -137 -54 -33 -35 -49 -22 -4 -6 -30 -28 -5 0 -5 -3 -12 -30 -28 -101 0 0 0 0 0 0 0 0 0 -22 -63 -39 -42 -33 -16 -1 0 -1 -3 -13
-271 -207 -170 -139 -107 -121 -73 -33 -8 -33 -1 -1 -5 -26 -19 0 -46 -10 -2 -1 -8 -33 0 0 0 0 0 0 0 -9 0 0 -28 -39 -57 -56 -47 -33 -12 -7 -7 -3 -1
-189 -137 -105 -40 -85 -23 -44 -1 -6 0 0 -1 -3 -2 -1 0 0 0 0 0 0 0 0 0 0 0 0 0 0 0 0 0 0 0 0 0 0 -51 -51 -16 -9 -7 -10
0 0 -194 -27 -3 -42 -41 -66 -1 0 -37 -45 0 0 0 0 0 0 0 0 0 0 0 0 0 0 0 0 0 0 0 0 0 0 0 0 0 0 0 -82 -59 -21 -15
-229 -248 -114 0 0 -1 -10 -4 0 0 0 0 0 0 0 0 0 0 0 0 0 0 0 0 -17 0 0 0 0 0 0 0 0 0 0 0 0 0 0 -10 -94 -70 -62
-105 0 0 0 0 0 0 0 0 0 0 0 0 0 0 0 0 0 0 0 0 0 0 -4 0 0 0 0 0 0 0 0 0 0 0 0 0 0 0 0 -21 -122 -77
0 0 0 0 0 0 0 0 0 0 0 0 0 0 0 0 0 0 0 0 -2 -33 0 0 -3 0 0 0 0 0 0 0 0 0 0 0 0 0 0 0 0 0 -119
0 0 0 0 0 0 0 0 0 0 0 0 0 0 -26 -20 -24 -27 -5 -27 -24 -17 -3 -1 -1 0 0 0 0 0 0 0 0 0 0 0 0 0 0 0 0 0 0
0 0 0 0 0 0 0 0 0 0 0 0 0 0 0 0 -1 -1 -1 -1 -1 -2 0 -1 -1 -2 -2 -5 0 -1 -2 -1 0 0 0 0 0 0 0 0 0 0 0
0 0 0 0 0 0 0 0 0 0 0 0 0 0 0 0 0 0 -1 -1 -1 -1 -1 0 0 -1 -2 -2 -2 -2 -1 -3 0 0 -2 0 -2 -1 0 0 0 0 0
0 0 0 0 0 0 0 0 0 0 0 0 0 0 0 0 0 0 0 0 0 0 0 0 0 -1 -1 0 -2 -2 -2 -2 -1 -3 -2 -2 -2 -2 -1 -1 0 0 0
0 0 0 0 0 0 0 0 0 0 0 0 0 0 0 0 0 0 0 0 0 0 0 0 0 -1 -1 -4 -2 -1 -1 -1 -1 -2 -2 -2 -1 -2 -1 -1 0 0 0
0 0 0 0 0 0 0 0 0 0 0 0 0 0 0 0 0 0 0 0 0 0 0 0 0 0 0 -1 -1 -1 -1 -1 -2 -2 -2 0 -2 -2 -2 -1 0 0 0
0 0 0 0 0 0 0 0 0 0 0 0 0 0 0 0 0 0 0 0 0 0 0 0 0 0 0 0 0 0 -2 -1 -1 -2 -1 -1 -3 -3 -2 -2 -1 0 0
0 0 0 0 0 0 0 0 0 0 0 0 0 0 0 0 0 0 0 0 0 0 0 0 0 -1 -1 -1 0 -1 -1 -1 -1 -1 -1 -1 -1 -1 -1 -1 0 0 -1
Wind_Speed
13 13 12 11 11 10 10 9 9 9 9 10 13 12 11 10 10 12 13 11 11 11 11 9 9 9 8 8 8 8 8 10 10 10 9 9 10 10 10 12 12 8 5
11 11 10 9 9 8 8 8 7 9 10 9 11 14 11 10 9 11 12 12 9 9 9 9 9 9 8 8 8 8 9 9 10 10 11 11 10 10 10 10 11 10 7
8 8 8 7 7 7 6 6 7 7 9 9 8 8 10 10 9 10 11 13 11 7 6 7 7 9 7 7 9 10 10 13 14 14 14 15 14 13 12 11 10 10 10
7 5 5 5 6 8 7 6 7 8 5 7 9 8 9 8 8 9 10 10 11 12 8 7 8 9 10 11 12 12 12 14 16 17 17 15 14 14 14 12 12 12 11
5 2 2 4 7 8 8 8 7 7 8 8 9 11 11 8 7 7 7 8 12 13 12 10 6 5 6 7 9 12 11 11 13 16 16 15 17 17 15 13 12 12 13
2 2 3 3 5 5 7 10 10 11 14 17 17 15 9 10 12 10 11 11 11 14 14 14 12 11 8 9 10 11 12 11 10 10 12 15 15 14 14 11 9 10 11
5 6 7 7 7 5 5 10 12 19 22 24 25 22 16 11 12 10 15 18 15 13 14 14 15 16 13 9 13 14 12 12 13 13 14 14 14 14 14 12 12 13 15
7 8 9 10 10 9 9 11 13 16 18 26 29 26 20 16 18 16 16 20 19 18 20 18 17 18 17 16 15 13 15 17 16 14 12 14 15 15 15 14 15 15 17
11 11 12 13 14 13 14 12 13 15 20 17 25 26 20 21 20 20 19 18 19 18 20 20 20 22 19 22 22 22 22 19 20 22 17 13 13 15 15 16 16 16 16
14 14 15 17 18 19 18 18 16 16 17 19 17 15 20 25 23 28 20 18 19 19 18 19 21 22 23 25 26 24 24 25 28 30 27 20 17 19 19 18 19 18 18
16 17 18 22 24 26 26 20 19 19 21 19 19 23 22 25 25 26 23 19 16 20 19 20 21 20 23 23 24 25 26 27 30 29 27 23 21 25 23 22 22 23 22
19 19 17 20 23 28 29 24 22 24 26 21 17 19 17 22 13 15 18 22 19 20 21 21 21 22 22 23 23 25 25 28 30 31 32 29 32 31 27 25 25 24 23
20 17 13 13 16 25 23 27 26 31 15 20 18 15 14 11 18 16 18 14 17 18 20 20 20 19 21 20 22 24 24 25 26 28 31 32 34 34 31 29 28 26 24
21 23 19 21 17 14 24 22 23 17 23 22 23 17 19 23 19 17 14 13 16 21 21 20 20 19 19 21 24 25 25 27 27 27 28 29 30 31 32 31 26 25 25
22 23 25 19 15 14 16 24 24 23 19 19 19 18 17 17 17 16 14 14 16 18 21 22 19 16 21 24 27 28 28 28 28 28 29 30 30 30 29 29 28 25 24
23 24 22 18 18 16 15 17 18 19 17 16 16 15 16 17 18 17 17 17 18 18 23 21 21 24 24 25 26 27 27 28 28 30 31 31 33 33 32 32 32 30 28
22 22 22 22 22 21 19 20 20 18 18 18 17 18 18 19 20 18 19 19 19 23 25 23 24 24 24 26 26 27 28 29 30 31 33 35 35 35 35 34 34 33 33
21 22 22 23 22 21 19 21 19 19 18 19 19 20 22 21 21 21 22 22 21 23 29 30 25 24 25 26 27 29 30 30 32 33 35 37 38 38 37 36 36 36 37
21 22 22 22 21 20 19 21 19 21 21 21 21 21 22 23 23 23 24 25 26 26 26 28 29 27 27 28 30 30 31 32 32 33 34 34 35 34 34 33 34 35 36
21 21 22 22 22 22 21 21 20 22 22 22 23 24 25 26 26 26 25 25 26 27 27 28 29 30 30 30 31 32 32 32 34 34 34 32 32 31 32 34 34 34 34
21 21 22 22 22 23 22 22 22 23 24 25 25 25 26 25 26 26 26 27 27 28 28 29 29 29 30 31 33 32 31 33 33 32 32 32 31 29 32 28 29 31 32
21 22 22 22 23 23 24 24 23 24 25 25 25 25 24 25 26 27 26 26 26 28 28 29 30 32 31 31 30 31 33 33 34 30 30 33 32 30 30 24 24 28 29
21 21 22 23 23 24 24 24 24 25 25 26 26 26 25 26 27 26 26 27 26 26 27 27 28 29 29 30 31 31 31 32 34 33 32 33 30 29 28 24 24 27 27
20 20 21 22 23 24 24 25 25 26 27 27 27 26 26 26 27 26 26 26 26 27 28 28 28 29 29 30 30 29 30 31 32 31 28 27 28 29 28 25 23 24 25
19 20 21 21 22 23 24 24 25 27 28 28 27 28 27 27 27 27 27 27 29 30 31 29 25 22 23 25 28 30 31 33 33 32 28 27 30 30 29 25 20 20 22
19 19 20 21 22 23 23 24 25 26 27 27 27 27 28 28 28 29 28 29 30 30 5 15 20 19 18 18 14 14 26 31 33 32 27 25 26 26 26 19 18 19 21
Wind_Direction
110 107 105 97 91 85 80 75 62 44 25 13 354 356 4 10 8 359 357 13 7 340 335 343 346 341 337 332 328 327 325 310 309 310 320 324 329 331 332 320 316 338 44
122 120 116 108 100 95 90 81 65 45 26 19 360 342 353 359 5 354 347 355 9 11 360 341 329 330 330 326 331 328 322 321 317 319 312 317 322 323 327 330 328 335 356
119 105 94 91 83 69 66 50 47 42 21 16 4 360 349 342 344 342 338 329 341 6 18 3 346 320 325 322 312 310 311 303 299 301 302 299 305 311 314 322 331 330 328
143 108 87 69 46 31 28 26 25 18 24 8 359 352 340 340 339 329 326 328 326 329 339 344 334 320 312 307 301 300 303 301 297 295 295 303 306 308 308 314 314 312 317
164 152 49 20 17 6 4 355 353 352 350 345 343 334 329 328 325 322 314 314 310 309 316 317 322 321 313 315 309 303 303 306 304 298 300 305 301 301 308 314 312 311 309
247 303 318 316 343 350 347 343 338 340 335 328 318 316 322 319 318 313 306 306 303 297 298 303 305 306 302 303 303 300 301 303 307 309 308 302 306 309 308 316 321 318 311
274 290 298 305 311 302 309 335 333 323 324 323 309 304 306 306 308 307 303 299 299 290 289 291 293 297 302 294 296 297 298 299 301 301 301 302 304 305 306 310 309 307 303
282 285 284 294 297 300 307 318 319 316 324 322 296 300 305 303 306 304 300 294 291 291 284 284 285 286 292 297 297 293 292 291 292 294 295 297 299 300 303 304 303 303 300
283 287 287 291 301 296 298 299 302 303 312 328 302 292 300 300 308 307 303 298 294 290 287 285 282 282 287 286 292 292 289 288 287 287 287 283 289 291 294 296 298 298 298
290 292 296 298 299 299 293 295 297 299 310 316 316 293 288 303 297 295 301 303 300 296 294 291 286 284 285 286 287 292 292 290 286 284 284 286 281 284 287 288 291 293 293
301 301 302 304 305 303 300 291 291 292 290 308 305 307 301 296 291 280 288 293 300 298 301 294 292 294 289 291 292 290 292 294 287 287 285 286 284 281 282 284 286 287 287
304 303 300 302 304 304 300 296 298 293 292 296 306 303 301 308 286 279 281 286 286 292 294 299 299 293 296 299 302 301 297 294 291 288 288 288 285 283 281 282 283 283 282
312 306 301 310 310 308 305 296 302 295 287 305 312 309 296 299 302 288 283 284 289 295 291 298 296 305 304 308 305 307 308 307 303 295 294 292 289 288 285 282 281 281 279
339 337 333 327 324 326 321 308 306 321 326 321 317 325 332 322 322 318 306 304 299 297 299 292 302 312 314 315 312 312 312 311 311 307 304 302 299 296 292 289 283 280 279
350 348 343 356 4 359 337 313 320 326 342 340 342 345 0 359 5 360 355 331 323 303 302 311 313 315 314 313 312 311 312 313 312 310 308 305 303 300 299 297 293 289 283
354 355 2 10 13 15 11 351 5 7 7 6 6 360 358 3 355 347 337 326 320 319 309 319 314 308 314 315 317 317 315 313 311 309 308 306 302 300 297 293 291 289 286
3 10 12 14 15 15 22 22 23 22 15 16 11 1 352 348 346 348 338 331 326 306 314 315 315 318 318 318 319 318 316 313 310 309 306 304 302 299 296 294 291 288 284
24 25 25 27 24 27 26 22 21 18 7 359 352 346 341 342 342 341 335 333 327 322 310 310 319 320 319 319 317 315 315 312 309 308 307 304 301 298 294 291 290 288 287
26 28 30 28 27 24 20 16 12 7 358 355 352 350 345 342 341 337 334 328 324 321 321 319 318 321 320 319 317 317 315 313 310 309 307 305 305 303 300 295 292 290 288
35 33 29 27 25 23 18 11 4 1 2 360 355 350 344 342 338 336 335 333 331 328 327 324 322 320 319 319 319 316 315 314 312 311 309 307 306 304 301 298 293 290 288
33 32 32 28 24 20 14 9 3 357 355 353 352 351 351 352 350 347 342 339 336 333 331 329 326 325 324 323 320 320 317 316 315 315 313 309 308 307 304 304 301 293 290
32 32 28 25 19 15 9 5 1 357 355 354 354 358 0 358 356 355 353 351 347 340 335 332 330 325 326 325 324 322 318 317 313 319 314 309 308 308 304 305 309 305 299
25 24 24 20 18 14 10 10 12 12 10 6 2 359 358 355 353 353 354 353 354 354 351 346 340 338 334 332 327 323 321 317 312 312 312 308 310 307 306 308 310 309 306
24 21 17 19 22 22 25 28 27 22 17 13 12 12 12 9 6 5 4 3 1 0 356 353 348 341 337 333 329 326 322 318 315 314 314 311 309 305 305 307 310 311 307
23 22 21 24 28 31 34 33 32 28 28 28 29 25 23 20 17 16 15 10 5 358 355 356 360 359 353 343 333 325 318 314 313 313 314 310 305 303 303 304 311 314 311
30 26 26 37 39 40 37 31 29 32 30 30 34 34 25 24 20 16 17 12 6 360 3 31 27 23 17 9 4 358 332 316 311 310 316 315 312 311 306 315 313 310 309